FENGYUN 1C DEB, 36225

Orbit data source: Space-Track

FENGYUN 1C DEB, 36225 is space debris in SSO originally from a launch on Mon, 10 May 1999 UTC launched from the Taiyaun Space Center, China (TSC). Fengyun 1C debris stems from the Chinese weather satellite Fengyun-1C, which was intentionally destroyed by a Chinese anti-satellite missile in 2007. This event dramatically increased the amount of space debris, with thousands of trackable fragments posing hazards to satellites and human spaceflight. The Fengyun 1C debris cloud has become a focal point in discussions about space sustainability and the need for international regulations to prevent the creation of new debris.

Loading next visibility...
Identifier
36225, 1999-025DVA
Orbit
SSO
Country
Flag of CNCN / PRC
Related business
Manufacturer
Unknown
Mission
Spacecraft
Bus & Motor
Unknown
Mass
Unknown
Launch date (UTC)
1999-05-10 (27 years ago)
Launch vehicle
Unknown
Launch site
Taiyaun Space Center, China (TSC)
Object type
Payload
Rocket body
Debris
Shape & HBR
Unknown shape, 0.1 m
Radar Cross Section
Small (<0.1 m²)

Expand to show TLE details & history
Last TLE update: 1 day ago

TLE from 1 day ago
0 FENGYUN 1C DEB
1 36225U 99025DVA 26237.28880019  .00093060  00000-0  27035-2 0  9996
2 36225  98.8276  46.7231 0023497 154.3419 205.8991 15.34838378706541
Epoch: 2026-08-25T06:55Z
TLE epoch observation values (Epoch: 2026-08-25T06:55:52.336Z)
Latitude
-0.00004°
Longitude
-30.80325°
Altitude
478.933 km
Speed
7.618 km/s
True Right ascension
03h 06m 53s
True Declination
0° 00' 00"
Sunlit
Object was in daylight at epoch
Visualization orbit readout
Latitude
Unknown
Longitude
Unknown
Altitude
Unknown
Speed
Unknown
Apparent Right ascension
Unknown
Apparent Declination
Unknown
Sunlit
N/A
Visualization observer readout
Local Sidereal Time
00:06:07
Azimuth
Unknown
Elevation
Unknown
Doppler factor
Unknown
Orbital elements
Apogee altitude
474.477 km
Perigee altitude
442.35 km
Semi-major axis
6,836.551 km
Eccentricity
0.00235
Inclination
98.8276°
RAAN
46.7231°
Arg. of periapsis
154.3419°
True anomaly
205.7818°
Mean anomaly
205.8991°
Eccentric anomaly
205.84042°
Mean motion
3.83961 °/min
Orbital period
93.76 mins
BSTAR
0.0027035
Loading maneuver chart data...
Computing Atmospheric mass density...
Loading historical data...
Loading historical data...
Loading historical data...
Loading historical data...
Loading historical data...
Loading historical data...
Loading historical data...

Documentation

Showing up to 5 results
|